Date,TemperatureHighF,TemperatureAvgF,TemperatureLowF,DewpointHighF,DewpointAvgF,DewpointLowF,HumidityHigh,HumidityAvg,HumidityLow,PressureMaxIn,PressureMinIn,WindSpeedMaxMPH,WindSpeedAvgMPH,GustSpeedMaxMPH,PrecipitationSumIn
2013-1-1,21,15,9,-100,-100,-100,0,0,100,0.00,40.00,0,-999,0,0.00
2013-1-2,32,23,13,-100,-100,-100,0,0,100,0.00,40.00,0,-999,0,0.00
2013-1-3,37,29,19,-100,-100,-100,0,0,100,0.00,40.00,0,-999,0,0.00
2013-1-4,43,27,17,-100,-100,-100,0,0,100,0.00,40.00,0,-999,0,0.00
2013-1-5,47,36,29,-100,-100,-100,0,0,100,0.00,40.00,0,-999,0,0.00
2013-1-6,43,29,21,-100,-100,-100,0,0,100,0.00,40.00,0,-999,0,0.00
2013-1-7,50,39,29,-100,-100,-100,0,0,100,0.00,40.00,0,-999,0,0.00
2013-1-8,55,42,32,-100,-100,-100,0,0,100,0.00,40.00,0,-999,0,0.00
2013-1-9,58,42,32,-100,-100,-100,0,0,100,0.00,40.00,0,-999,0,0.00
2013-1-10,44,41,39,-100,-100,-100,0,0,100,0.00,40.00,0,-999,0,0.00
2013-1-11,57,51,44,-100,-100,-100,0,0,100,0.00,40.00,0,-999,0,0.00
2013-1-12,39,26,19,-100,-100,-100,0,0,100,0.00,40.00,0,-999,0,0.00
2013-1-13,29,18,12,-100,-100,-100,0,0,100,0.00,40.00,0,-999,0,0.00
2013-1-14,32,24,12,-100,-100,-100,0,0,100,0.00,40.00,0,-999,0,0.00
2013-1-15,36,24,17,-100,-100,-100,0,0,100,0.00,40.00,0,-999,0,0.00
2013-1-16,53,35,21,-100,-100,-100,0,0,100,0.00,40.00,0,-999,0,0.00
2013-1-17,51,37,27,-100,-100,-100,0,0,100,0.00,40.00,0,-999,0,0.00
2013-1-18,62,44,32,-100,-100,-100,0,0,100,0.00,40.00,0,-999,0,0.00
2013-1-19,65,48,37,-100,-100,-100,0,0,100,0.00,40.00,0,-999,0,0.00
2013-1-20,36,26,19,-100,-100,-100,0,0,100,0.00,40.00,0,-999,0,0.00
2013-1-21,20,17,14,-100,-100,-100,0,0,100,0.00,40.00,0,-999,0,0.00
2013-1-22,29,19,11,-100,-100,-100,0,0,100,0.00,40.00,0,-999,0,0.00
2013-1-23,46,29,14,-100,-100,-100,0,0,100,0.00,40.00,0,-999,0,0.00
2013-1-24,25,18,9,-100,-100,-100,0,0,100,0.00,40.00,0,-999,0,0.00
2013-1-25,52,34,20,-100,-100,-100,0,0,100,0.00,40.00,0,-999,0,0.00
2013-1-26,53,38,29,-100,-100,-100,0,0,100,0.00,40.00,0,-999,0,0.00
2013-1-27,56,47,39,-100,-100,-100,0,0,100,0.00,40.00,0,-999,0,0.00
2013-1-28,75,57,44,-100,-100,-100,0,0,100,0.00,40.00,0,-999,0,0.00
2013-1-29,68,46,33,-100,-100,-100,0,0,100,0.00,40.00,0,-999,0,0.00
2013-1-30,33,27,20,-100,-100,-100,0,0,100,0.00,40.00,0,-999,0,0.00
2013-1-31,17,12,7,-100,-100,-100,0,0,100,0.00,40.00,0,-999,0,0.00
2013-2-1,26,15,3,-100,-100,-100,0,0,100,0.00,40.00,0,-999,0,0.00
2013-2-2,48,36,25,-100,-100,-100,0,0,100,0.00,40.00,0,-999,0,0.00
2013-2-3,48,39,29,-100,-100,-100,0,0,100,0.00,40.00,0,-999,0,0.00
2013-2-4,40,32,24,-100,-100,-100,0,0,100,0.00,40.00,0,-999,0,0.00
2013-2-5,57,37,23,-100,-100,-100,0,0,100,0.00,40.00,0,-999,0,0.00
2013-2-6,62,45,31,-100,-100,-100,0,0,100,0.00,40.00,0,-999,0,0.00
2013-2-7,51,43,32,-100,-100,-100,0,0,100,0.00,40.00,0,-999,0,0.00
2013-2-8,43,35,29,-100,-100,-100,0,0,100,0.00,40.00,0,-999,0,0.00
2013-2-9,51,38,28,-100,-100,-100,0,0,100,0.00,40.00,0,-999,0,0.00
2013-2-10,51,42,36,-100,-100,-100,0,0,100,0.00,40.00,0,-999,0,0.00
2013-2-11,49,39,30,-100,-100,-100,0,0,100,0.00,40.00,0,-999,0,0.00
2013-2-12,47,34,25,-100,-100,-100,0,0,100,0.00,40.00,0,-999,0,0.00
2013-2-13,58,38,28,-100,-100,-100,0,0,100,0.00,40.00,0,-999,0,0.00
2013-2-14,53,42,32,-100,-100,-100,0,0,100,0.00,40.00,0,-999,0,0.00
2013-2-15,39,29,18,-100,-100,-100,0,0,100,0.00,40.00,0,-999,0,0.00
2013-2-16,34,28,15,-100,-100,-100,0,0,100,0.00,40.00,0,-999,0,0.00
2013-2-17,58,40,25,-100,-100,-100,0,0,100,0.00,40.00,0,-999,0,0.00
2013-2-18,51,42,26,-100,-100,-100,0,0,100,0.00,40.00,0,-999,0,0.00
2013-2-19,33,25,18,-100,-100,-100,0,0,100,0.00,40.00,0,-999,0,0.00
2013-2-20,25,19,11,-100,-100,-100,0,0,100,0.00,40.00,0,-999,0,0.00
2013-2-21,24,23,20,-100,-100,-100,0,0,100,0.00,40.00,0,-999,0,0.00
2013-2-22,27,22,14,-100,-100,-100,0,0,100,0.00,40.00,0,-999,0,0.00
2013-2-23,35,22,9,-100,-100,-100,0,0,100,0.00,40.00,0,-999,0,0.00
2013-2-24,42,29,18,-100,-100,-100,0,0,100,0.00,40.00,0,-999,0,0.00
2013-2-25,38,35,30,-100,-100,-100,0,0,100,0.00,40.00,0,-999,0,0.00
2013-2-26,36,32,31,-100,-100,-100,0,0,100,0.00,40.00,0,-999,0,0.00
2013-2-27,37,32,28,-100,-100,-100,0,0,100,0.00,40.00,0,-999,0,0.00
2013-2-28,32,31,28,-100,-100,-100,0,0,100,0.00,40.00,0,-999,0,0.00
2013-3-1,31,28,25,-100,-100,-100,0,0,100,0.00,40.00,0,-999,0,0.00
2013-3-2,36,28,24,-100,-100,-100,0,0,100,0.00,40.00,0,-999,0,0.00
2013-3-3,43,33,25,-100,-100,-100,0,0,100,0.00,40.00,0,-999,0,0.00
2013-3-4,46,39,34,-100,-100,-100,0,0,100,0.00,40.00,0,-999,0,0.00
2013-3-5,36,32,26,-100,-100,-100,0,0,100,0.00,40.00,0,-999,0,0.00
2013-3-6,40,30,22,-100,-100,-100,0,0,100,0.00,40.00,0,-999,0,0.00
2013-3-7,52,35,25,-100,-100,-100,0,0,100,0.00,40.00,0,-999,0,0.00
2013-3-8,57,43,33,-100,-100,-100,0,0,100,0.00,40.00,0,-999,0,0.00
2013-3-9,55,50,47,-100,-100,-100,0,0,100,0.00,40.00,0,-999,0,0.00
2013-3-10,54,37,26,-100,-100,-100,0,0,100,0.00,40.00,0,-999,0,0.00
2013-3-11,39,30,25,-100,-100,-100,0,0,100,0.00,40.00,0,-999,0,0.00
2013-3-12,43,35,29,-100,-100,-100,0,0,100,0.00,40.00,0,-999,0,0.00
2013-3-13,47,33,23,-100,-100,-100,0,0,100,0.00,40.00,0,-999,0,0.00
2013-3-14,75,46,33,-100,-100,-100,0,0,100,0.00,40.00,0,-999,0,0.00
2013-3-15,86,56,40,-100,-100,-100,0,0,100,0.00,40.00,0,-999,0,0.00
2013-3-16,53,40,34,-100,-100,-100,0,0,100,0.00,40.00,0,-999,0,0.00
2013-3-17,39,33,29,-100,-100,-100,0,0,100,0.00,40.00,0,-999,0,0.00
2013-3-18,53,42,34,-100,-100,-100,0,0,100,0.00,40.00,0,-999,0,0.00
2013-3-19,42,36,32,-100,-100,-100,0,0,100,0.00,40.00,0,-999,0,0.00
2013-3-20,42,32,21,-100,-100,-100,0,0,100,0.00,40.00,0,-999,0,0.00
2013-3-21,30,27,24,-100,-100,-100,0,0,100,0.00,40.00,0,-999,0,0.00
2013-3-22,36,31,29,-100,-100,-100,0,0,100,0.00,40.00,0,-999,0,0.00
2013-3-23,40,33,29,-100,-100,-100,0,0,100,0.00,40.00,0,-999,0,0.00
2013-3-24,31,28,22,-100,-100,-100,0,0,100,0.00,40.00,0,-999,0,0.00
2013-3-25,32,28,21,-100,-100,-100,0,0,100,0.00,40.00,0,-999,0,0.00
2013-3-26,42,32,20,-100,-100,-100,0,0,100,0.00,40.00,0,-999,0,0.00
2013-3-27,54,39,27,-100,-100,-100,0,0,100,0.00,40.00,0,-999,0,0.00
2013-3-28,64,46,32,-100,-100,-100,0,0,100,0.00,40.00,0,-999,0,0.00
2013-3-29,71,50,39,-100,-100,-100,0,0,100,0.00,40.00,0,-999,0,0.00
2013-3-30,72,59,51,-100,-100,-100,0,0,100,0.00,40.00,0,-999,0,0.00
2013-3-31,64,55,47,-100,-100,-100,0,0,100,0.00,40.00,0,-999,0,0.00
2013-4-1,47,37,29,-100,-100,-100,0,0,100,0.00,40.00,0,-999,0,0.00
2013-4-2,51,37,27,-100,-100,-100,0,0,100,0.00,40.00,0,-999,0,0.00
2013-4-3,52,42,31,-100,-100,-100,0,0,100,0.00,40.00,0,-999,0,0.00
2013-4-4,69,51,34,-100,-100,-100,0,0,100,0.00,40.00,0,-999,0,0.00
2013-4-5,73,53,40,-100,-100,-100,0,0,100,0.00,40.00,0,-999,0,0.00
2013-4-6,77,64,56,-100,-100,-100,0,0,100,0.00,40.00,0,-999,0,0.00
2013-4-7,78,63,50,-100,-100,-100,0,0,100,0.00,40.00,0,-999,0,0.00
2013-4-8,76,65,53,-100,-100,-100,0,0,100,0.00,40.00,0,-999,0,0.00
2013-4-9,76,63,47,-100,-100,-100,0,0,100,0.00,40.00,0,-999,0,0.00
2013-4-10,47,40,38,-100,-100,-100,0,0,100,0.00,40.00,0,-999,0,0.00
2013-4-11,40,37,34,-100,-100,-100,0,0,100,0.00,40.00,0,-999,0,0.00
2013-4-12,52,40,32,-100,-100,-100,0,0,100,0.00,40.00,0,-999,0,0.00
2013-4-13,65,49,35,-100,-100,-100,0,0,100,0.00,40.00,0,-999,0,0.00
2013-4-14,71,61,51,-100,-100,-100,0,0,100,0.00,40.00,0,-999,0,0.00
2013-4-15,52,47,42,-100,-100,-100,0,0,100,0.00,40.00,0,-999,0,0.00
2013-4-16,48,43,39,-100,-100,-100,0,0,100,0.00,40.00,0,-999,0,0.00
2013-4-17,48,45,43,-100,-100,-100,0,0,100,0.00,40.00,0,-999,0,0.00
2013-4-18,43,39,36,-100,-100,-100,0,0,100,0.00,40.00,0,-999,0,0.00
2013-4-19,53,39,32,-100,-100,-100,0,0,100,0.00,40.00,0,-999,0,0.00
2013-4-20,56,44,31,-100,-100,-100,0,0,100,0.00,40.00,0,-999,0,0.00
2013-4-21,67,54,42,-100,-100,-100,0,0,100,0.00,40.00,0,-999,0,0.00
2013-4-22,64,54,40,-100,-100,-100,0,0,100,0.00,40.00,0,-999,0,0.00
2013-4-23,40,34,31,-100,-100,-100,0,0,100,0.00,40.00,0,-999,0,0.00
2013-4-24,58,41,29,-100,-100,-100,0,0,100,0.00,40.00,0,-999,0,0.00
2013-4-25,71,55,38,-100,-100,-100,0,0,100,0.00,40.00,0,-999,0,0.00
2013-4-26,57,54,51,-100,-100,-100,0,0,100,0.00,40.00,0,-999,0,0.00
2013-4-27,61,53,48,-100,-100,-100,0,0,100,0.00,40.00,0,-999,0,0.00
2013-4-28,79,63,43,-100,-100,-100,0,0,100,0.00,40.00,0,-999,0,0.00
2013-4-29,87,68,56,-100,-100,-100,0,0,100,0.00,40.00,0,-999,0,0.00
2013-4-30,89,78,69,-100,-100,-100,0,0,100,0.00,40.00,0,-999,0,0.00
2013-5-1,69,56,40,-100,-100,-100,0,0,100,0.00,40.00,0,-999,0,0.00
2013-5-2,40,37,34,-100,-100,-100,0,0,100,0.00,40.00,0,-999,0,0.00
2013-5-3,43,40,37,-100,-100,-100,0,0,100,0.00,40.00,0,-999,0,0.00
2013-5-4,49,40,36,-100,-100,-100,0,0,100,0.00,40.00,0,-999,0,0.00
2013-5-5,54,49,44,-100,-100,-100,0,0,100,0.00,40.00,0,-999,0,0.00
2013-5-6,66,55,51,-100,-100,-100,0,0,100,0.00,40.00,0,-999,0,0.00
2013-5-7,79,64,51,-100,-100,-100,0,0,100,0.00,40.00,0,-999,0,0.00
2013-5-8,79,66,58,-100,-100,-100,0,0,100,0.00,40.00,0,-999,0,0.00
2013-5-9,71,64,60,-100,-100,-100,0,0,100,0.00,40.00,0,-999,0,0.00
2013-5-10,70,60,53,-100,-100,-100,0,0,100,0.00,40.00,0,-999,0,0.00
2013-5-11,68,57,49,-100,-100,-100,0,0,100,0.00,40.00,0,-999,0,0.00
2013-5-12,69,57,43,-100,-100,-100,0,0,100,0.00,40.00,0,-999,0,0.00
2013-5-13,83,64,47,-100,-100,-100,0,0,100,0.00,40.00,0,-999,0,0.00
2013-5-14,97,79,65,-100,-100,-100,0,0,100,0.00,40.00,0,-999,0,0.00
2013-5-15,91,77,66,-100,-100,-100,0,0,100,0.00,40.00,0,-999,0,0.00
2013-5-16,84,72,62,-100,-100,-100,0,0,100,0.00,40.00,0,-999,0,0.00
2013-5-17,83,70,61,-100,-100,-100,0,0,100,0.00,40.00,0,-999,0,0.00
2013-5-18,88,75,62,-100,-100,-100,0,0,100,0.00,40.00,0,-999,0,0.00
2013-5-19,83,71,62,-100,-100,-100,0,0,100,0.00,40.00,0,-999,0,0.00
2013-5-20,85,70,60,-100,-100,-100,0,0,100,0.00,40.00,0,-999,0,0.00
2013-5-21,76,66,57,-100,-100,-100,0,0,100,0.00,40.00,0,-999,0,0.00
2013-5-22,71,62,54,-100,-100,-100,0,0,100,0.00,40.00,0,-999,0,0.00
2013-5-23,68,60,54,-100,-100,-100,0,0,100,0.00,40.00,0,-999,0,0.00
2013-5-24,77,64,51,-100,-100,-100,0,0,100,0.00,40.00,0,-999,0,0.00
2013-5-25,87,74,62,-100,-100,-100,0,0,100,0.00,40.00,0,-999,0,0.00
2013-5-26,87,77,68,-100,-100,-100,0,0,100,0.00,40.00,0,-999,0,0.00
2013-5-27,77,71,62,-100,-100,-100,0,0,100,0.00,40.00,0,-999,0,0.00
2013-5-28,83,73,63,-100,-100,-100,0,0,100,0.00,40.00,0,-999,0,0.00
2013-5-29,81,73,63,-100,-100,-100,0,0,100,0.00,40.00,0,-999,0,0.00
2013-5-30,77,68,63,-100,-100,-100,0,0,100,0.00,40.00,0,-999,0,0.00
2013-5-31,84,70,64,-100,-100,-100,0,0,100,0.00,40.00,0,-999,0,0.00
2013-6-1,70,65,58,-100,-100,-100,0,0,100,0.00,40.00,0,-999,0,0.00
2013-6-2,69,59,54,-100,-100,-100,0,0,100,0.00,40.00,0,-999,0,0.00
2013-6-3,77,64,51,-100,-100,-100,0,0,100,0.00,40.00,0,-999,0,0.00
2013-6-4,80,70,62,-100,-100,-100,0,0,100,0.00,40.00,0,-999,0,0.00
2013-6-5,69,65,61,-100,-100,-100,0,0,100,0.00,40.00,0,-999,0,0.00
2013-6-6,76,68,58,-100,-100,-100,0,0,100,0.00,40.00,0,-999,0,0.00
2013-6-7,75,66,55,-100,-100,-100,0,0,100,0.00,40.00,0,-999,0,0.00
2013-6-8,81,70,57,-100,-100,-100,0,0,100,0.00,40.00,0,-999,0,0.00
2013-6-9,79,70,63,-100,-100,-100,0,0,100,0.00,40.00,0,-999,0,0.00
2013-6-10,89,74,59,-100,-100,-100,0,0,100,0.00,40.00,0,-999,0,0.00
2013-6-11,96,82,73,-100,-100,-100,0,0,100,0.00,40.00,0,-999,0,0.00
2013-6-12,98,86,73,-100,-100,-100,0,0,100,0.00,40.00,0,-999,0,0.00
2013-6-13,86,73,62,-100,-100,-100,0,0,100,0.00,40.00,0,-999,0,0.00
2013-6-14,93,78,66,-100,-100,-100,0,0,100,0.00,40.00,0,-999,0,0.00
2013-6-15,90,79,69,-100,-100,-100,0,0,100,0.00,40.00,0,-999,0,0.00
2013-6-16,83,74,68,-100,-100,-100,0,0,100,0.00,40.00,0,-999,0,0.00
2013-6-17,87,77,69,-100,-100,-100,0,0,100,0.00,40.00,0,-999,0,0.00
2013-6-18,85,76,69,-100,-100,-100,0,0,100,0.00,40.00,0,-999,0,0.00
2013-6-19,90,79,66,-100,-100,-100,0,0,100,0.00,40.00,0,-999,0,0.00
2013-6-20,92,78,70,-100,-100,-100,0,0,100,0.00,40.00,0,-999,0,0.00
2013-6-22,96,89,80,-100,-100,-100,0,0,100,0.00,40.00,0,-999,0,0.00
2013-6-23,83,78,68,-100,-100,-100,0,0,100,0.00,40.00,0,-999,0,0.00
2013-6-24,91,82,76,-100,-100,-100,0,0,100,0.00,40.00,0,-999,0,0.00
2013-6-25,91,82,73,-100,-100,-100,0,0,100,0.00,40.00,0,-999,0,0.00
2013-6-26,99,87,76,-100,-100,-100,0,0,100,0.00,40.00,0,-999,0,0.00
2013-6-27,84,76,72,-100,-100,-100,0,0,100,0.00,40.00,0,-999,0,0.00
2013-6-28,89,79,69,-100,-100,-100,0,0,100,0.00,40.00,0,-999,0,0.00
2013-6-29,84,76,65,-100,-100,-100,0,0,100,0.00,40.00,0,-999,0,0.00
2013-6-30,80,71,62,-100,-100,-100,0,0,100,0.00,40.00,0,-999,0,0.00
2013-7-1,83,72,58,-100,-100,-100,0,0,100,0.00,40.00,0,-999,0,0.00
2013-7-2,86,74,62,-100,-100,-100,0,0,100,0.00,40.00,0,-999,0,0.00
2013-7-3,85,72,63,-100,-100,-100,0,0,100,0.00,40.00,0,-999,0,0.00
2013-7-4,91,72,59,-100,-100,-100,0,0,100,0.00,40.00,0,-999,0,0.00
2013-7-5,93,81,66,-100,-100,-100,0,0,100,0.00,40.00,0,-999,0,0.00
2013-7-6,89,76,69,-100,-100,-100,0,0,100,0.00,40.00,0,-999,0,0.00
2013-7-7,96,84,73,-100,-100,-100,0,0,100,0.00,40.00,0,-999,0,0.00
2013-7-8,96,84,76,-100,-100,-100,0,0,100,0.00,40.00,0,-999,0,0.00
2013-7-9,105,88,78,-100,-100,-100,0,0,100,0.00,40.00,0,-999,0,0.00
2013-7-10,91,83,76,-100,-100,-100,0,0,100,0.00,40.00,0,-999,0,0.00
2013-7-11,90,76,66,-100,-100,-100,0,0,100,0.00,40.00,0,-999,0,0.00
2013-7-12,94,81,66,-100,-100,-100,0,0,100,0.00,40.00,0,-999,0,0.00
2013-7-13,87,79,72,-100,-100,-100,0,0,100,0.00,40.00,0,-999,0,0.00
2013-7-14,91,78,69,-100,-100,-100,0,0,100,0.00,40.00,0,-999,0,0.00
2013-7-15,91,79,69,-100,-100,-100,0,0,100,0.00,40.00,0,-999,0,0.00
2013-7-16,95,83,71,-100,-100,-100,0,0,100,0.00,40.00,0,-999,0,0.00
2013-7-17,97,85,73,-100,-100,-100,0,0,100,0.00,40.00,0,-999,0,0.00
2013-7-18,100,89,73,-100,-100,-100,0,0,100,0.00,40.00,0,-999,0,0.00
2013-7-19,101,87,74,-100,-100,-100,0,0,100,0.00,40.00,0,-999,0,0.00
2013-7-20,82,77,75,-100,-100,-100,0,0,100,0.00,40.00,0,-999,0,0.00
2013-7-21,91,80,72,-100,-100,-100,0,0,100,0.00,40.00,0,-999,0,0.00
2013-7-22,101,84,72,-100,-100,-100,0,0,100,0.00,40.00,0,-999,0,0.00
2013-7-23,85,77,72,-100,-100,-100,0,0,100,0.00,40.00,0,-999,0,0.00
2013-7-24,85,74,62,-100,-100,-100,0,0,100,0.00,40.00,0,-999,0,0.00
2013-7-25,87,73,68,-100,-100,-100,0,0,100,0.00,40.00,0,-999,0,0.00
2013-7-26,87,76,64,-100,-100,-100,0,0,100,0.00,40.00,0,-999,0,0.00
2013-7-27,78,65,58,-100,-100,-100,0,0,100,0.00,40.00,0,-999,0,0.00
2013-7-28,82,70,58,-100,-100,-100,0,0,100,0.00,40.00,0,-999,0,0.00
2013-7-29,70,66,62,-100,-100,-100,0,0,100,0.00,40.00,0,-999,0,0.00
2013-7-30,80,74,70,-100,-100,-100,0,0,100,0.00,40.00,0,-999,0,0.00
2013-7-31,87,76,67,-100,-100,-100,0,0,100,0.00,40.00,0,-999,0,0.00
2013-8-1,91,75,69,-100,-100,-100,0,0,100,0.00,40.00,0,-999,0,0.00
2013-8-2,83,75,66,-100,-100,-100,0,0,100,0.00,40.00,0,-999,0,0.00
2013-8-3,85,76,67,-100,-100,-100,0,0,100,0.00,40.00,0,-999,0,0.00
2013-8-4,76,71,65,-100,-100,-100,0,0,100,0.00,40.00,0,-999,0,0.00
2013-8-5,83,75,71,-100,-100,-100,0,0,100,0.00,40.00,0,-999,0,0.00
2013-8-6,91,81,74,-100,-100,-100,0,0,100,0.00,40.00,0,-999,0,0.00
2013-8-7,88,80,71,-100,-100,-100,0,0,100,0.00,40.00,0,-999,0,0.00
2013-8-8,77,71,66,-100,-100,-100,0,0,100,0.00,40.00,0,-999,0,0.00
2013-8-9,82,76,69,-100,-100,-100,0,0,100,0.00,40.00,0,-999,0,0.00
2013-8-10,85,75,65,-100,-100,-100,0,0,100,0.00,40.00,0,-999,0,0.00
2013-8-11,90,75,64,-100,-100,-100,0,0,100,0.00,40.00,0,-999,0,0.00
2013-8-12,90,75,69,-100,-100,-100,0,0,100,0.00,40.00,0,-999,0,0.00
2013-8-13,80,72,65,-100,-100,-100,0,0,100,0.00,40.00,0,-999,0,0.00
2013-8-14,82,71,60,-100,-100,-100,0,0,100,0.00,40.00,0,-999,0,0.00
2013-8-15,72,66,60,-100,-100,-100,0,0,100,0.00,40.00,0,-999,0,0.00
2013-8-16,77,69,62,-100,-100,-100,0,0,100,0.00,40.00,0,-999,0,0.00
2013-8-17,80,72,62,-100,-100,-100,0,0,100,0.00,40.00,0,-999,0,0.00
2013-8-18,85,75,62,-100,-100,-100,0,0,100,0.00,40.00,0,-999,0,0.00
2013-8-19,88,74,63,-100,-100,-100,0,0,100,0.00,40.00,0,-999,0,0.00
2013-8-20,91,79,69,-100,-100,-100,0,0,100,0.00,40.00,0,-999,0,0.00
2013-8-21,93,81,69,-100,-100,-100,0,0,100,0.00,40.00,0,-999,0,0.00
2013-8-22,94,80,71,-100,-100,-100,0,0,100,0.00,40.00,0,-999,0,0.00
2013-8-23,94,82,72,-100,-100,-100,0,0,100,0.00,40.00,0,-999,0,0.00
2013-8-24,94,82,73,-100,-100,-100,0,0,100,0.00,40.00,0,-999,0,0.00
2013-8-25,96,84,72,-100,-100,-100,0,0,100,0.00,40.00,0,-999,0,0.00
2013-8-26,97,84,73,-100,-100,-100,0,0,100,0.00,40.00,0,-999,0,0.00
2013-8-27,96,80,73,-100,-100,-100,0,0,100,0.00,40.00,0,-999,0,0.00
2013-8-28,98,87,78,-100,-100,-100,0,0,100,0.00,40.00,0,-999,0,0.00
2013-8-29,100,85,73,-100,-100,-100,0,0,100,0.00,40.00,0,-999,0,0.00
2013-8-30,104,86,74,-100,-100,-100,0,0,100,0.00,40.00,0,-999,0,0.00
2013-8-31,91,82,76,-100,-100,-100,0,0,100,0.00,40.00,0,-999,0,0.00
2013-9-1,88,77,69,-100,-100,-100,0,0,100,0.00,40.00,0,-999,0,0.00
2013-9-2,82,72,62,-100,-100,-100,0,0,100,0.00,40.00,0,-999,0,0.00
2013-9-3,90,78,58,-100,-100,-100,0,0,100,0.00,40.00,0,-999,0,0.00
2013-9-4,88,74,62,-100,-100,-100,0,0,100,0.00,40.00,0,-999,0,0.00
2013-9-5,91,76,66,-100,-100,-100,0,0,100,0.00,40.00,0,-999,0,0.00
2013-9-6,94,80,69,-100,-100,-100,0,0,100,0.00,40.00,0,-999,0,0.00
2013-9-7,101,86,72,-100,-100,-100,0,0,100,0.00,40.00,0,-999,0,0.00
2013-9-8,102,84,73,-100,-100,-100,0,0,100,0.00,40.00,0,-999,0,0.00
2013-9-9,99,85,74,-100,-100,-100,0,0,100,0.00,40.00,0,-999,0,0.00
2013-9-10,98,80,70,-100,-100,-100,0,0,100,0.00,40.00,0,-999,0,0.00
2013-9-11,99,79,69,-100,-100,-100,0,0,100,0.00,40.00,0,-999,0,0.00
2013-9-12,87,76,66,-100,-100,-100,0,0,100,0.00,40.00,0,-999,0,0.00
2013-9-13,76,66,58,-100,-100,-100,0,0,100,0.00,40.00,0,-999,0,0.00
2013-9-14,82,68,53,-100,-100,-100,0,0,100,0.00,40.00,0,-999,0,0.00
2013-9-15,77,68,63,-100,-100,-100,0,0,100,0.00,40.00,0,-999,0,0.00
2013-9-16,64,60,58,-100,-100,-100,0,0,100,0.00,40.00,0,-999,0,0.00
2013-9-17,82,69,62,-100,-100,-100,0,0,100,0.00,40.00,0,-999,0,0.00
2013-9-18,81,71,69,-100,-100,-100,0,0,100,0.00,40.00,0,-999,0,0.00
2013-9-19,94,78,68,-100,-100,-100,0,0,100,0.00,40.00,0,-999,0,0.00
2013-9-20,73,65,57,-100,-100,-100,0,0,100,0.00,40.00,0,-999,0,0.00
2013-9-21,80,68,53,-100,-100,-100,0,0,100,0.00,40.00,0,-999,0,0.00
2013-9-22,80,65,54,-100,-100,-100,0,0,100,0.00,40.00,0,-999,0,0.00
2013-9-23,79,65,54,-100,-100,-100,0,0,100,0.00,40.00,0,-999,0,0.00
2013-9-24,76,68,60,-100,-100,-100,0,0,100,0.00,40.00,0,-999,0,0.00
2013-9-25,83,68,56,-100,-100,-100,0,0,100,0.00,40.00,0,-999,0,0.00
2013-9-26,88,73,62,-100,-100,-100,0,0,100,0.00,40.00,0,-999,0,0.00
2013-9-27,90,77,69,-100,-100,-100,0,0,100,0.00,40.00,0,-999,0,0.00
2013-9-28,74,68,58,-100,-100,-100,0,0,100,0.00,40.00,0,-999,0,0.00
2013-9-29,77,69,54,-100,-100,-100,0,0,100,0.00,40.00,0,-999,0,0.00
2013-9-30,83,64,48,-100,-100,-100,0,0,100,0.00,40.00,0,-999,0,0.00
2013-10-1,81,73,69,-100,-100,-100,0,0,100,0.00,40.00,0,-999,0,0.00
2013-10-2,86,72,63,-100,-100,-100,0,0,100,0.00,40.00,0,-999,0,0.00
2013-10-3,85,73,64,-100,-100,-100,0,0,100,0.00,40.00,0,-999,0,0.00
2013-10-4,91,78,69,-100,-100,-100,0,0,100,0.00,40.00,0,-999,0,0.00
2013-10-5,63,53,44,-100,-100,-100,0,0,100,0.00,40.00,0,-999,0,0.00
2013-10-6,62,51,44,-100,-100,-100,0,0,100,0.00,40.00,0,-999,0,0.00
2013-10-7,79,62,43,-100,-100,-100,0,0,100,0.00,40.00,0,-999,0,0.00
2013-10-8,79,62,48,-100,-100,-100,0,0,100,0.00,40.00,0,-999,0,0.00
2013-10-9,80,64,51,-100,-100,-100,0,0,100,0.00,40.00,0,-999,0,0.00
2013-10-10,81,67,52,-100,-100,-100,0,0,100,0.00,40.00,0,-999,0,0.00
2013-10-11,80,68,59,-100,-100,-100,0,0,100,0.00,40.00,0,-999,0,0.00
2013-10-12,73,62,48,-100,-100,-100,0,0,100,0.00,40.00,0,-999,0,0.00
2013-10-13,72,64,47,-100,-100,-100,0,0,100,0.00,40.00,0,-999,0,0.00
2013-10-14,71,59,51,-100,-100,-100,0,0,100,0.00,40.00,0,-999,0,0.00
2013-10-15,64,55,46,-100,-100,-100,0,0,100,0.00,40.00,0,-999,0,0.00
2013-10-16,63,53,44,-100,-100,-100,0,0,100,0.00,40.00,0,-999,0,0.00
2013-10-17,70,52,41,-100,-100,-100,0,0,100,0.00,40.00,0,-999,0,0.00
2013-10-18,47,41,38,-100,-100,-100,0,0,100,0.00,40.00,0,-999,0,0.00
2013-10-19,65,49,34,-100,-100,-100,0,0,100,0.00,40.00,0,-999,0,0.00
2013-10-20,72,54,46,-100,-100,-100,0,0,100,0.00,40.00,0,-999,0,0.00
2013-10-21,54,46,37,-100,-100,-100,0,0,100,0.00,40.00,0,-999,0,0.00
2013-10-22,60,51,38,-100,-100,-100,0,0,100,0.00,40.00,0,-999,0,0.00
2013-10-23,58,46,34,-100,-100,-100,0,0,100,0.00,40.00,0,-999,0,0.00
2013-10-24,53,43,35,-100,-100,-100,0,0,100,0.00,40.00,0,-999,0,0.00
2013-10-25,60,45,32,-100,-100,-100,0,0,100,0.00,40.00,0,-999,0,0.00
2013-10-26,60,49,42,-100,-100,-100,0,0,100,0.00,40.00,0,-999,0,0.00
2013-10-27,67,55,32,-100,-100,-100,0,0,100,0.00,40.00,0,-999,0,0.00
2013-10-28,72,53,40,-100,-100,-100,0,0,100,0.00,40.00,0,-999,0,0.00
2013-10-29,64,57,48,-100,-100,-100,0,0,100,0.00,40.00,0,-999,0,0.00
2013-10-30,68,62,58,-100,-100,-100,0,0,100,0.00,40.00,0,-999,0,0.00
2013-10-31,58,50,45,-100,-100,-100,0,0,100,0.00,40.00,0,-999,0,0.00
2013-11-1,62,51,43,-100,-100,-100,0,0,100,0.00,40.00,0,-999,0,0.00
2013-11-2,58,45,40,-100,-100,-100,0,0,100,0.00,40.00,0,-999,0,0.00
2013-11-3,60,50,38,-100,-100,-100,0,0,100,0.00,40.00,0,-999,0,0.00
2013-11-4,63,59,51,-100,-100,-100,0,0,100,0.00,40.00,0,-999,0,0.00
2013-11-5,61,56,42,-100,-100,-100,0,0,100,0.00,40.00,0,-999,0,0.00
2013-11-6,48,41,35,-100,-100,-100,0,0,100,0.00,40.00,0,-999,0,0.00
2013-11-7,57,45,33,-100,-100,-100,0,0,100,0.00,40.00,0,-999,0,0.00
2013-11-8,67,50,35,-100,-100,-100,0,0,100,0.00,40.00,0,-999,0,0.00
2013-11-9,66,56,44,-100,-100,-100,0,0,100,0.00,40.00,0,-999,0,0.00
2013-11-10,58,48,37,-100,-100,-100,0,0,100,0.00,40.00,0,-999,0,0.00
2013-11-11,56,45,28,-100,-100,-100,0,0,100,0.00,40.00,0,-999,0,0.00
2013-11-12,38,26,16,-100,-100,-100,0,0,100,0.00,40.00,0,-999,0,0.00
2013-11-13,51,40,22,-100,-100,-100,0,0,100,0.00,40.00,0,-999,0,0.00
2013-11-14,59,45,39,-100,-100,-100,0,0,100,0.00,40.00,0,-999,0,0.00
2013-11-15,60,48,37,-100,-100,-100,0,0,100,0.00,40.00,0,-999,0,0.00
2013-11-16,74,61,51,-100,-100,-100,0,0,100,0.00,40.00,0,-999,0,0.00
2013-11-17,65,57,44,-100,-100,-100,0,0,100,0.00,40.00,0,-999,0,0.00
2013-11-18,61,46,35,-100,-100,-100,0,0,100,0.00,40.00,0,-999,0,0.00
2013-11-19,62,50,38,-100,-100,-100,0,0,100,0.00,40.00,0,-999,0,0.00
2013-11-20,52,47,43,-100,-100,-100,0,0,100,0.00,40.00,0,-999,0,0.00
2013-11-21,47,37,28,-100,-100,-100,0,0,100,0.00,40.00,0,-999,0,0.00
2013-11-22,28,26,22,-100,-100,-100,0,0,100,0.00,40.00,0,-999,0,0.00
2013-11-23,26,21,15,-100,-100,-100,0,0,100,0.00,40.00,0,-999,0,0.00
2013-11-24,29,22,14,-100,-100,-100,0,0,100,0.00,40.00,0,-999,0,0.00
2013-11-25,43,34,28,-100,-100,-100,0,0,100,0.00,40.00,0,-999,0,0.00
2013-11-26,38,31,21,-100,-100,-100,0,0,100,0.00,40.00,0,-999,0,0.00
2013-11-27,35,24,14,-100,-100,-100,0,0,100,0.00,40.00,0,-999,0,0.00
2013-11-28,38,32,25,-100,-100,-100,0,0,100,0.00,40.00,0,-999,0,0.00
2013-11-29,51,37,23,-100,-100,-100,0,0,100,0.00,40.00,0,-999,0,0.00
2013-11-30,57,43,32,-100,-100,-100,0,0,100,0.00,40.00,0,-999,0,0.00
2013-12-1,54,45,31,-100,-100,-100,0,0,100,0.00,40.00,0,-999,0,0.00
2013-12-2,61,48,38,-100,-100,-100,0,0,100,0.00,40.00,0,-999,0,0.00
2013-12-3,62,45,38,-100,-100,-100,0,0,100,0.00,40.00,0,-999,0,0.00
2013-12-4,39,31,21,-100,-100,-100,0,0,100,0.00,40.00,0,-999,0,0.00
2013-12-5,20,17,14,-100,-100,-100,0,0,100,0.00,40.00,0,-999,0,0.00
2013-12-6,15,12,9,-100,-100,-100,0,0,100,0.00,40.00,0,-999,0,0.00
2013-12-7,19,10,1,-100,-100,-100,0,0,100,0.00,40.00,0,-999,0,0.00
2013-12-8,24,20,17,-100,-100,-100,0,0,100,0.00,40.00,0,-999,0,0.00
2013-12-9,14,9,5,-100,-100,-100,0,0,100,0.00,40.00,0,-999,0,0.00
2013-12-10,35,24,11,-100,-100,-100,0,0,100,0.00,40.00,0,-999,0,0.00
2013-12-11,29,18,8,-100,-100,-100,0,0,100,0.00,40.00,0,-999,0,0.00
2013-12-12,46,26,8,-100,-100,-100,0,0,100,0.00,40.00,0,-999,0,0.00
2013-12-13,40,33,25,-100,-100,-100,0,0,100,0.00,40.00,0,-999,0,0.00
2013-12-14,32,25,19,-100,-100,-100,0,0,100,0.00,40.00,0,-999,0,0.00
2013-12-15,47,34,18,-100,-100,-100,0,0,100,0.00,40.00,0,-999,0,0.00
2013-12-16,45,36,28,-100,-100,-100,0,0,100,0.00,40.00,0,-999,0,0.00
2013-12-17,47,37,29,-100,-100,-100,0,0,100,0.00,40.00,0,-999,0,0.00
2013-12-18,67,43,28,-100,-100,-100,0,0,100,0.00,40.00,0,-999,0,0.00
2013-12-19,58,48,33,-100,-100,-100,0,0,100,0.00,40.00,0,-999,0,0.00
2013-12-20,33,22,19,-100,-100,-100,0,0,100,0.00,40.00,0,-999,0,0.00
2013-12-21,26,23,21,-100,-100,-100,0,0,100,0.00,40.00,0,-999,0,0.00
2013-12-22,25,22,11,-100,-100,-100,0,0,100,0.00,40.00,0,-999,0,0.00
2013-12-23,12,9,5,-100,-100,-100,0,0,100,0.00,40.00,0,-999,0,0.00
2013-12-24,29,17,3,-100,-100,-100,0,0,100,0.00,40.00,0,-999,0,0.00
2013-12-25,40,32,21,-100,-100,-100,0,0,100,0.00,40.00,0,-999,0,0.00
2013-12-26,44,32,21,-100,-100,-100,0,0,100,0.00,40.00,0,-999,0,0.00
2013-12-27,51,41,27,-100,-100,-100,0,0,100,0.00,40.00,0,-999,0,0.00
2013-12-28,54,42,36,-100,-100,-100,0,0,100,0.00,40.00,0,-999,0,0.00
2013-12-29,32,16,12,-100,-100,-100,0,0,100,0.00,40.00,0,-999,0,0.00
2013-12-30,35,21,10,-100,-100,-100,0,0,100,0.00,40.00,0,-999,0,0.00
2014-1-2,13,9,6,-100,-100,-100,0,0,100,0.00,40.00,0,-999,0,0.00